KA8OAD-1 Weather Reports


Display with metric or nautical units.
time (UTC)temp
F
wind
direction
speed
MPH
gust
MPH
rain 1hr
in
rain 24hr
in
rain mn
in
humidity
%
barometer
mb
20260904225504 77 290 1.0 2.0 0.00 0.38 0.05 81 1013.8
20260904225005 77 289 1.0 2.0 0.00 0.41 0.05 81 1013.8
20260904224504 77 290 1.0 3.0 0.00 0.42 0.05 81 1013.7
20260904223503 77 291 0.0 2.0 0.00 0.45 0.05 80 1013.5
20260904223005 77 291 1.0 2.0 0.00 0.45 0.05 80 1013.3
20260904222503 77 291 1.0 3.0 0.00 0.45 0.05 80 1013.3
20260904222005 77 293 1.0 3.0 0.00 0.45 0.05 80 1013.2
20260904221503 77 223 1.0 2.0 0.00 0.45 0.05 80 1013.2
20260904221005 77 194 1.0 3.0 0.00 0.45 0.05 80 1013.1
20260904220005 78 194 1.0 2.0 0.00 0.45 0.05 80 1012.9
20260904215505 78 193 0.0 2.0 0.00 0.45 0.05 81 1012.6
20260904214503 78 194 0.0 1.0 0.00 0.45 0.05 81 1012.5
20260904213004 78 193 0.0 3.0 0.00 0.45 0.05 80 1012.4
20260904212504 78 193 0.0 3.0 0.00 0.45 0.05 80 1012.4
20260904212004 78 194 0.0 2.0 0.00 0.45 0.05 80 1012.4
20260904211503 77 194 1.0 3.0 0.00 0.45 0.05 80 1012.3
20260904211005 77 192 1.0 3.0 0.00 0.45 0.05 79 1012.4
20260904210005 77 188 1.0 3.0 0.00 0.45 0.05 79 1012.0
20260904205503 77 188 1.0 3.0 0.00 0.45 0.05 78 1011.9
20260904205005 77 193 1.0 3.0 0.00 0.45 0.05 79 1011.9
20260904204005 77 252 1.0 3.0 0.00 0.45 0.05 79 1011.8
20260904203503 77 254 0.0 3.0 0.00 0.45 0.05 80 1012.1
20260904203005 77 256 0.0 2.0 0.00 0.45 0.05 79 1012.2
20260904202503 77 255 0.0 2.0 0.00 0.45 0.05 80 1012.3
20260904202004 77 255 1.0 3.0 0.00 0.45 0.05 79 1012.4
20260904201504 76 255 1.0 3.0 0.00 0.45 0.05 80 1012.6
20260904201004 76 255 1.0 3.0 0.00 0.45 0.05 81 1012.6
20260904200504 76 255 0.0 3.0 0.00 0.45 0.05 82 1012.8
20260904200004 76 320 0.0 5.0 0.00 0.45 0.05 83 1013.0
20260904195504 76 314 0.0 5.0 0.00 0.45 0.05 85 1013.2
20260904195004 76 259 0.0 2.0 0.00 0.45 0.05 85 1013.3
20260904194504 75 272 0.0 4.0 0.00 0.45 0.05 85 1013.4
20260904194004 75 275 0.0 4.0 0.00 0.45 0.05 86 1013.4
20260904193504 75 271 0.0 3.0 0.00 0.45 0.05 87 1013.5
20260904193004 75 291 0.0 3.0 0.00 0.45 0.05 88 1013.6
20260904192504 75 306 0.0 4.0 0.00 0.45 0.05 89 1013.6
20260904192004 75 305 1.0 4.0 0.00 0.45 0.05 88 1013.8
20260904191504 75 297 1.0 3.0 0.00 0.45 0.05 88 1013.9
20260904191004 74 291 0.0 3.0 0.00 0.45 0.05 88 1013.9
20260904190503 74 221 1.0 3.0 0.00 0.45 0.05 87 1013.6
20260904185004 74 261 1.0 4.0 0.00 0.45 0.05 87 1014.0
20260904184504 75 259 1.0 4.0 0.00 0.45 0.05 87 1014.1
20260904184004 75 247 0.0 4.0 0.00 0.45 0.05 88 1014.2
20260904183504 75 228 1.0 4.0 0.00 0.45 0.05 88 1014.1
20260904183004 75 207 1.0 4.0 0.00 0.45 0.05 88 1014.2
20260904182504 75 223 1.0 3.0 0.00 0.45 0.05 89 1014.1
20260904182004 75 290 1.0 5.0 0.00 0.45 0.05 90 1014.4
20260904181504 75 303 1.0 5.0 0.00 0.45 0.05 90 1014.8
20260904180004 75 312 2.0 6.0 0.01 0.45 0.05 92 1015.7
20260904175504 74 309 2.0 9.0 0.01 0.45 0.05 93 1015.6
20260904175004 74 306 2.0 9.0 0.01 0.45 0.05 93 1015.8
20260904174504 74 305 2.0 6.0 0.01 0.45 0.05 93 1015.9
20260904172503 74 296 2.0 7.0 0.01 0.45 0.05 94 1015.9
20260904172005 74 296 2.0 7.0 0.01 0.45 0.05 94 1015.8
20260904171005 73 294 1.0 4.0 0.01 0.45 0.05 94 1015.6
20260904170503 73 292 0.0 4.0 0.00 0.44 0.04 94 1015.7
20260904170004 73 299 1.0 4.0 0.00 0.44 0.04 94 1015.7
20260904165504 73 299 2.0 5.0 0.00 0.44 0.04 94 1015.8
20260904164503 73 295 1.0 4.0 0.00 0.44 0.04 94 1015.9
20260904163504 73 299 1.0 4.0 0.00 0.44 0.04 94 1015.8
20260904163004 73 296 1.0 4.0 0.00 0.44 0.04 94 1016.1
20260904162503 73 305 1.0 4.0 0.00 0.44 0.04 94 1016.0
20260904162005 73 325 1.0 4.0 0.00 0.44 0.04 94 1016.1
20260904161504 73 314 1.0 7.0 0.00 0.44 0.04 94 1016.1
20260904161005 73 302 1.0 7.0 0.00 0.44 0.04 94 1016.0
20260904160504 73 301 0.0 4.0 0.00 0.44 0.04 94 1016.1
20260904160005 72 0 0.0 0.0 0.00 0.44 0.04 94 1016.0
20260904155504 72 0 0.0 0.0 0.00 0.44 0.04 94 1015.8
20260904155004 72 0 0.0 0.0 0.00 0.44 0.04 94 1015.1
20260904154504 72 0 0.0 0.0 0.00 0.44 0.04 94 1015.2
20260904154004 71 0 0.0 0.0 0.00 0.44 0.04 94 1015.2
20260904153504 71 0 0.0 0.0 0.00 0.44 0.04 94 1015.1
20260904153004 71 0 0.0 0.0 0.01 0.44 0.04 94 1015.0
20260904152504 71 0 0.0 0.0 0.02 0.44 0.04 94 1015.2
20260904152004 70 0 0.0 0.0 0.03 0.44 0.04 94 1015.4
20260904151503 70 0 0.0 0.0 0.03 0.44 0.04 94 1015.6
20260904150504 70 0 0.0 0.0 0.04 0.44 0.04 94 1015.4
20260904150004 70 0 0.0 0.0 0.04 0.44 0.04 94 1015.3
20260904145504 70 0 0.0 0.0 0.04 0.44 0.04 94 1015.5
20260904145004 70 0 0.0 0.0 0.04 0.44 0.04 94 1015.5
20260904144503 70 0 0.0 0.0 0.04 0.44 0.04 94 1015.6
20260904144005 70 0 0.0 0.0 0.04 0.44 0.04 94 1015.4
20260904143504 70 0 0.0 0.0 0.04 0.44 0.04 94 1015.6
20260904143004 69 0 0.0 0.0 0.03 0.43 0.03 94 1015.8
20260904142503 70 0 0.0 0.0 0.02 0.42 0.02 94 1015.8
20260904142004 70 0 0.0 0.0 0.01 0.41 0.01 94 1015.8
20260904141504 70 0 0.0 0.0 0.01 0.41 0.01 94 1015.8
20260904141004 70 0 0.0 0.0 0.00 0.40 0.00 94 1015.7
20260904140504 70 307 0.0 2.0 0.00 0.40 0.00 94 1015.8
20260904140004 70 307 0.0 2.0 0.00 0.40 0.00 94 1015.9
20260904135504 70 298 1.0 3.0 0.00 0.40 0.00 94 1016.0
20260904135004 70 296 1.0 3.0 0.00 0.40 0.00 94 1015.9
20260904134504 70 292 0.0 3.0 0.00 0.40 0.00 94 1015.8
20260904134004 70 0 0.0 0.0 0.00 0.40 0.00 94 1015.7
20260904133504 69 0 0.0 0.0 0.00 0.40 0.00 94 1015.8
20260904133004 69 0 0.0 0.0 0.00 0.40 0.00 94 1015.5
20260904132504 69 0 0.0 0.0 0.00 0.40 0.00 94 1015.3
20260904132004 69 0 0.0 0.0 0.00 0.40 0.00 94 1015.2
20260904131503 69 0 0.0 0.0 0.00 0.40 0.00 94 1015.2
20260904131004 69 0 0.0 0.0 0.00 0.40 0.00 94 1015.2
20260904130504 69 0 0.0 0.0 0.00 0.40 0.00 94 1015.2
20260904130005 69 0 0.0 0.0 0.00 0.40 0.00 94 1015.2
20260904125503 69 0 0.0 0.0 0.00 0.40 0.00 94 1015.2
20260904124504 69 0 0.0 0.0 0.00 0.40 0.00 94 1015.3
20260904124004 69 0 0.0 0.0 0.00 0.40 0.00 94 1015.3
20260904123504 68 0 0.0 0.0 0.00 0.40 0.00 94 1015.1
20260904123004 68 0 0.0 0.0 0.00 0.40 0.00 94 1015.0
20260904122504 68 0 0.0 0.0 0.00 0.40 0.00 94 1015.0
20260904122004 68 0 0.0 0.0 0.00 0.40 0.00 94 1015.0
20260904121503 68 0 0.0 0.0 0.00 0.40 0.00 94 1015.1
20260904121005 68 0 0.0 0.0 0.00 0.40 0.00 94 1015.0
20260904120503 68 0 0.0 0.0 0.00 0.40 0.00 94 1015.1
20260904120004 68 0 0.0 0.0 0.00 0.40 0.00 93 1015.2
20260904115504 68 0 0.0 0.0 0.00 0.40 0.00 93 1015.2
20260904115004 68 0 0.0 0.0 0.00 0.40 0.00 93 1015.1
20260904114504 68 0 0.0 0.0 0.00 0.40 0.00 93 1015.1
20260904114004 68 0 0.0 0.0 0.00 0.41 0.00 94 1014.9
20260904113504 68 0 0.0 0.0 0.00 0.45 0.00 93 1015.0
20260904113004 68 0 0.0 0.0 0.00 0.49 0.00 93 1014.8
20260904112504 68 0 0.0 0.0 0.00 0.55 0.00 93 1014.9
20260904112004 68 0 0.0 0.0 0.00 0.58 0.00 93 1014.7
20260904111504 68 0 0.0 0.0 0.00 0.58 0.00 93 1014.7
20260904111004 68 0 0.0 0.0 0.00 0.58 0.00 93 1014.7
20260904110503 68 0 0.0 0.0 0.00 0.58 0.00 93 1014.7
20260904110005 68 0 0.0 0.0 0.00 0.58 0.00 93 1014.7
20260904105503 68 0 0.0 0.0 0.00 0.58 0.00 93 1014.7
20260904105005 68 0 0.0 0.0 0.00 0.58 0.00 93 1014.7
20260904104504 68 0 0.0 0.0 0.00 0.58 0.00 93 1014.6
20260904104005 68 0 0.0 0.0 0.00 0.58 0.00 93 1014.4
20260904103503 68 0 0.0 0.0 0.00 0.58 0.00 93 1014.5
20260904103005 68 0 0.0 0.0 0.00 0.58 0.00 93 1014.3
20260904102503 68 0 0.0 0.0 0.00 0.58 0.00 93 1014.1
20260904102004 68 0 0.0 0.0 0.00 0.58 0.00 93 1014.0
20260904101504 68 0 0.0 0.0 0.00 0.58 0.00 93 1014.1
20260904101004 68 0 0.0 0.0 0.00 0.58 0.00 93 1014.3
20260904100504 68 0 0.0 0.0 0.00 0.58 0.00 93 1014.5
20260904100005 68 0 0.0 0.0 0.00 0.58 0.00 93 1014.7
20260904095503 68 0 0.0 0.0 0.00 0.58 0.00 93 1014.8
20260904095004 68 0 0.0 0.0 0.00 0.58 0.00 93 1014.9
20260904094504 68 0 0.0 0.0 0.00 0.58 0.00 93 1014.8
20260904094004 68 0 0.0 0.0 0.00 0.58 0.00 93 1014.6
20260904093504 68 0 0.0 0.0 0.00 0.58 0.00 93 1014.5
20260904093004 68 0 0.0 0.0 0.00 0.58 0.00 93 1014.5
20260904092503 68 0 0.0 0.0 0.00 0.58 0.00 93 1014.5
20260904092004 68 0 0.0 0.0 0.00 0.58 0.00 93 1014.5
20260904091004 68 0 0.0 0.0 0.00 0.58 0.00 93 1014.4
20260904090005 68 0 0.0 0.0 0.00 0.58 0.00 93 1014.4
20260904085503 68 0 0.0 0.0 0.00 0.58 0.00 93 1014.4
20260904085005 68 0 0.0 0.0 0.00 0.58 0.00 93 1014.3
20260904084005 68 0 0.0 0.0 0.00 0.58 0.00 93 1014.2
20260904083504 68 0 0.0 0.0 0.00 0.58 0.00 93 1014.0
20260904082504 68 0 0.0 0.0 0.00 0.58 0.00 93 1014.1
20260904081503 68 0 0.0 0.0 0.00 0.58 0.00 93 1014.3
20260904081004 68 0 0.0 0.0 0.00 0.58 0.00 93 1014.3
20260904080504 68 0 0.0 0.0 0.00 0.58 0.00 93 1014.3
20260904080005 68 0 0.0 0.0 0.00 0.58 0.00 93 1014.4
20260904074504 68 0 0.0 0.0 0.00 0.58 0.00 93 1014.5
20260904074004 68 0 0.0 0.0 0.00 0.58 0.00 93 1014.5
20260904073504 68 0 0.0 0.0 0.00 0.58 0.00 93 1014.6
20260904073004 68 0 0.0 0.0 0.00 0.58 0.00 93 1014.6
20260904072503 68 0 0.0 0.0 0.00 0.58 0.00 93 1014.6
20260904072005 68 0 0.0 0.0 0.00 0.58 0.00 93 1014.6
20260904071503 68 0 0.0 0.0 0.00 0.58 0.00 93 1014.6
20260904071005 68 0 0.0 0.0 0.00 0.58 0.00 93 1014.6
20260904070503 68 0 0.0 0.0 0.00 0.58 0.00 93 1014.6
20260904070004 68 0 0.0 0.0 0.00 0.58 0.00 93 1014.5
20260904065004 68 0 0.0 0.0 0.00 0.58 0.00 93 1014.5
20260904064504 68 0 0.0 0.0 0.00 0.58 0.00 93 1014.6
20260904064005 68 0 0.0 0.0 0.00 0.58 0.00 93 1014.6
20260904063504 68 0 0.0 0.0 0.00 0.58 0.00 93 1014.8
20260904063005 68 0 0.0 0.0 0.00 0.58 0.00 93 1014.8
20260904062503 68 0 0.0 0.0 0.00 0.58 0.00 93 1014.8
20260904062004 68 0 0.0 0.0 0.00 0.58 0.00 93 1014.8
20260904061504 68 0 0.0 0.0 0.00 0.58 0.00 93 1014.8
20260904061004 68 0 0.0 0.0 0.00 0.58 0.00 93 1014.7
20260904060504 68 0 0.0 0.0 0.00 0.58 0.00 93 1014.8
20260904060005 68 0 0.0 0.0 0.00 0.58 0.00 93 1014.8
20260904055503 68 0 0.0 0.0 0.00 0.58 0.00 93 1014.8
20260904055005 68 0 0.0 0.0 0.00 0.58 0.00 93 1014.8
20260904054504 68 0 0.0 0.0 0.00 0.58 0.00 93 1014.8
20260904054004 68 0 0.0 0.0 0.00 0.58 0.00 93 1014.7
20260904053504 68 0 0.0 0.0 0.00 0.58 0.00 93 1014.7
20260904053004 68 0 0.0 0.0 0.00 0.58 0.00 93 1014.6
20260904052504 68 0 0.0 0.0 0.00 0.58 0.00 93 1014.4
20260904052005 68 0 0.0 0.0 0.00 0.58 0.00 93 1014.4
20260904051504 69 0 0.0 0.0 0.00 0.58 0.00 93 1014.4
20260904051004 69 0 0.0 0.0 0.00 0.58 0.00 93 1014.2
20260904050504 69 0 0.0 0.0 0.00 0.58 0.00 93 1014.3
20260904050004 69 0 0.0 0.0 0.00 0.58 0.00 93 1014.2
20260904045504 69 193 0.0 1.0 0.01 0.58 0.00 93 1014.2
20260904045004 69 193 0.0 1.0 0.01 0.58 0.00 93 1014.2
20260904044004 69 0 0.0 0.0 0.03 0.58 0.00 93 1014.2
20260904043004 69 171 0.0 2.0 0.03 0.58 0.00 93 1014.2
20260904041503 69 205 1.0 4.0 0.03 0.58 0.00 93 1014.2
20260904041005 69 207 2.0 5.0 0.03 0.58 0.00 93 1014.3
20260904040504 69 194 1.0 5.0 0.03 0.58 0.00 93 1014.4
20260904040008 69 146 0.0 4.0 0.03 0.58 0.00 92 1014.8
20260904035504 69 130 0.0 2.0 0.02 0.57 0.57 93 1014.7
20260904034503 69 0 0.0 0.0 0.01 0.56 0.56 92 1015.0
20260904034005 69 0 0.0 0.0 0.00 0.55 0.55 92 1014.9
20260904033503 69 0 0.0 0.0 0.00 0.55 0.55 92 1014.9
20260904032504 69 92 0.0 3.0 0.00 0.55 0.55 92 1014.3
20260904032004 69 92 0.0 3.0 0.00 0.55 0.55 92 1014.1
20260904031503 69 0 0.0 0.0 0.00 0.55 0.55 92 1013.9
20260904031005 69 224 0.0 3.0 0.00 0.55 0.55 92 1014.0
20260904030503 69 224 0.0 3.0 0.00 0.55 0.55 92 1014.3
20260904030005 69 219 0.0 2.0 0.00 0.55 0.55 92 1014.4
20260904025503 69 219 0.0 2.0 0.00 0.55 0.55 92 1014.5
20260904025005 69 0 0.0 0.0 0.00 0.55 0.55 92 1014.4
20260904024504 69 0 0.0 0.0 0.00 0.55 0.55 92 1014.4
20260904023004 69 187 0.0 2.0 0.00 0.55 0.55 92 1014.3
20260904022504 69 186 0.0 2.0 0.00 0.55 0.55 92 1014.3
20260904022004 69 0 0.0 0.0 0.00 0.55 0.55 92 1014.2
20260904021504 69 0 0.0 0.0 0.00 0.55 0.55 92 1014.2
20260904021004 69 0 0.0 0.0 0.00 0.55 0.55 92 1014.1
20260904020504 69 0 0.0 0.0 0.00 0.55 0.55 92 1014.0
20260904020004 69 0 0.0 0.0 0.00 0.55 0.55 91 1014.1
20260904015004 69 0 0.0 0.0 0.00 0.55 0.55 91 1014.2
20260904014503 69 0 0.0 0.0 0.00 0.55 0.55 91 1014.3
20260904013503 69 0 0.0 0.0 0.00 0.55 0.55 91 1013.9
20260904013004 69 0 0.0 0.0 0.00 0.55 0.55 91 1013.8
20260904012504 69 0 0.0 0.0 0.00 0.55 0.55 91 1013.8
20260904012004 69 0 0.0 0.0 0.00 0.55 0.55 91 1013.9
20260904011504 69 0 0.0 0.0 0.00 0.55 0.55 91 1013.7
20260904011005 69 0 0.0 0.0 0.00 0.55 0.55 91 1013.9
20260904010504 69 0 0.0 0.0 0.00 0.55 0.55 91 1014.1
20260904010004 69 0 0.0 0.0 0.00 0.55 0.55 91 1014.3
20260904005503 70 0 0.0 0.0 0.00 0.55 0.55 90 1014.4
20260904005005 70 0 0.0 0.0 0.01 0.55 0.55 90 1014.3
20260904004503 70 0 0.0 0.0 0.01 0.55 0.55 90 1014.5
20260904003505 70 0 0.0 0.0 0.05 0.55 0.55 90 1014.4
20260904003004 70 0 0.0 0.0 0.06 0.55 0.55 90 1014.2
20260904002504 70 0 0.0 0.0 0.07 0.55 0.55 89 1014.2
20260904002004 70 0 0.0 0.0 0.08 0.55 0.55 89 1014.4
20260904001504 70 0 0.0 0.0 0.09 0.55 0.55 89 1014.6
20260904001004 70 0 0.0 0.0 0.14 0.55 0.55 88 1014.7
20260904000504 70 0 0.0 0.0 0.17 0.55 0.55 88 1014.9
20260904000005 70 0 0.0 0.0 0.24 0.55 0.55 87 1015.0
20260903235503 71 0 0.0 0.0 0.31 0.55 0.55 87 1014.8
20260903235004 71 0 0.0 0.0 0.32 0.54 0.54 86 1015.5
20260903234004 71 0 0.0 0.0 0.34 0.52 0.52 85 1015.5
20260903233503 72 71 0.0 3.0 0.32 0.50 0.50 84 1015.8
20260903233004 72 343 0.0 5.0 0.31 0.49 0.49 83 1015.9
20260903232504 72 345 1.0 5.0 0.30 0.48 0.48 83 1015.9
20260903232005 73 349 0.0 2.0 0.29 0.47 0.47 82 1015.9
20260903231005 74 295 1.0 7.0 0.23 0.41 0.41 81 1016.7